Location: Arrien
(43.3167°N, 0.1500°W)
Time: 04:12:52
(UTC+00:00)

Okean O Rocket - Pass Details

Date: 15 October 2021
Orbit: 623 x 643 km, 98.2° (Epoch: 02 December)

Event Time Altitude Azimuth Distance (km) Brightness Sun altitude
Rises 19:10:41 0° 200° (SSW) 2,891 5.1 -21.3°
Reaches altitude 10° 19:13:19 10° 216° (SW) 1,990 4.5 -21.8°
Maximum altitude 19:16:37 21° 266° (W) 1,399 4.2 -22.4°
Drops below altitude 10° 19:19:57 10° 316° (NW) 2,003 4.9 -23.0°
Sets 19:22:37 0° 333° (NNW) 2,917 5.5 -23.5°
